Regional Weather Roundup
Issued by NWS Upton, NY

Current Version | Previous Version | Graphics & Text | Print | Product List | Glossary Off
Versions: 1 2 3 4 5 6 7 8 9 10 11 12 13 14 15 16 17 18 19 20 21 22 23 24 25 26 27 28 29 30 31 32 33 34 35 36 37 38 39 40 41 42 43 44 45 46 47 48 49 50

000
ASUS41 KOKX 261705
RWROKX

REGIONAL WEATHER ROUNDUP
NATIONAL WEATHER SERVICE NEW YORK NY
1200 PM EST MON JAN 26 2015

NOTE: "FAIR" INDICATES FEW OR NO CLOUDS BELOW 12,000 FEET WITH NO
SIGNIFICANT WEATHER AND/OR OBSTRUCTIONS TO VISIBILITY.

NYZ071-072-176-178-NJZ106-104-261800-
NEW YORK CITY METRO AREA


CITY           SKY/WX    TMP DP  RH WIND       PRES   REMARKS
CENTRAL PARK   CLOUDY    23  14  68 NE17G30   29.96F WCI   9
LAGUARDIA APRT FLURRIES  22  17  81 NE24G31   29.95F WCI   5
KENNEDY INTL   CLOUDY    26  18  71 NE22G31   29.94F WCI  12
NEWARK/LIBERTY FLURRIES  23  18  81 NE18      29.94F WCI   9
BRNX BOT. GARD   N/A    N/A N/A N/A N8        29.95F
TETERBORO      LGT SNOW  22  15  75 N12       29.95F FOG     WCI  10
$$

NYZ177-179-078>081-261800-
LONG ISLAND NEW YORK

CITY           SKY/WX    TMP DP  RH WIND       PRES   REMARKS
FARMINGDALE    LGT SNOW  24  19  81 NE16G28   29.93F WCI  11
ISLIP          LGT SNOW  24  18  77 NE18G29   29.92F WCI  10
SHIRLEY        LGT SNOW  24  19  81 N10G22    29.95F WCI  14
WESTHAMPTON    LGT SNOW  26  20  77 NE20G30   29.97F WCI  12
MONTAUK POINT    N/A     27  22  81 NE12G22   29.99F WCI  17
$$

NYZ052-065-067-261800-
HUDSON VALLEY

CITY           SKY/WX    TMP DP  RH WIND       PRES   REMARKS
WHITE PLAINS   LGT SNOW  20  13  74 NE12      29.94F FOG     WCI   8
NEWBURGH       CLOUDY    16   9  73 NE14      30.01F WCI   1
MONTGOMERY     LGT SNOW  16   9  74 NE14      29.98F WCI   2
POUGHKEEPSIE   CLOUDY    19   7  59 N9        30.03F WCI   8
ALBANY         CLOUDY    15  -1  49 NE6       30.09F WCI   6
$$

NJZ001-105-106-008-010-013-015-019>022-104-261800-
NEW JERSEY

CITY           SKY/WX    TMP DP  RH WIND       PRES   REMARKS
NEWARK/LIBERTY FLURRIES  23  18  81 NE18      29.94F WCI   9
TETERBORO      LGT SNOW  22  15  75 N12       29.95F FOG     WCI  10
CALDWELL       CLOUDY    21  14  74 NE13      29.95F WCI   9
MORRISTOWN     LGT SNOW  16  16 100 NE20      29.99S WCI  -1
SOMERVILLE     FLURRIES  24  16  71 NE12G17   29.90F WCI  13
SUSSEX         LGT SNOW  15   9  76 NE12G23   29.95F WCI   2
ANDOVER          N/A     16  11  80 NE8       29.91F WCI   5
TRENTON        LGT SNOW  27  21  78 E22       29.86F WCI  13
MILLVILLE      CLOUDY    35  32  88 NE20      29.75F WCI  24
ATLANTIC CITY  CLOUDY    36  34  92 NE24G31   29.76F WCI  24
WRIGHTSTOWN    CLOUDY    30  27  86 NE17G25   29.81F FOG     WCI  18
TOMS RIVER     CLOUDY    32  30  93 NE20G28   29.84F VSB 1   WCI  20
BELMAR         CLOUDY    28  19  69 NE22      29.85F WCI  15
$$

PAZ047>061-062-071-261800-
EASTERN PENNSYLVANIA

CITY           SKY/WX    TMP DP  RH WIND       PRES   REMARKS
PHILADELPHIA   LGT SNOW  30  25  81 NE16      29.84F WCI  19
ALLENTOWN      LGT SNOW  19  12  73 NE18      29.88F VSB 3/4 WCI   4
SCRANTON       CLOUDY    22  12  65 NE8       29.85F WCI  12
$$

CTZ002-004>006-009-010-012-RIZ004-006-007-MAZ004-011-015-261800-
SOUTHERN NEW ENGLAND
 IN CT

CITY           SKY/WX    TMP DP  RH WIND       PRES   REMARKS
BRADLEY INTL   FLURRIES  17   2  51 N13       30.07F WCI   4
HARTFORD       CLOUDY    17   4  56 N12       30.07F WCI   4
DANBURY        LGT SNOW  17   9  70 NE10      30.00F WCI   5
WTRBRY/OXFORD  LGT SNOW  16   3  57 NE12G18   29.96F VSB 1   WCI   3
BRIDGEPORT     LGT SNOW  20  15  81 NE15      30.00F WCI   6
MERIDEN        LGT SNOW  17   9  70 N9        30.04F VSB 1   WCI   6
NEW HAVEN      LGT SNOW  19  14  81 N13       30.01F VSB 1   WCI   6
CHESTER        LGT SNOW  21  18  86 NE9G18    29.99F VSB 1   WCI  11
GROTON         LGT SNOW  23  19  85 NE17      30.00F FOG     WCI   9
WILLIMANTIC    LGT SNOW  19  13  77 NE9       30.05F VSB 3/4 WCI   8

 IN RI

CITY           SKY/WX    TMP DP  RH WIND       PRES   REMARKS
PROVIDENCE     LGT SNOW  21  14  74 N13       30.07F FOG     WCI   9
BLOCK ISLAND   CLOUDY    27  21  80 NE15G24   29.97F WCI  15
WESTERLY       LGT SNOW  23  18  81 NE9G21    30.02F WCI  13

 IN MA

CITY           SKY/WX    TMP DP  RH WIND       PRES   REMARKS
BOSTON         LGT SNOW  22  15  75 N14       30.10F WCI   9
WORCESTER      CLOUDY    14   6  70 NE10      30.02F WCI   1
WESTFIELD      CLOUDY    17   0  47 N8        30.07F WCI   7
PROVINCETOWN   CLOUDY    30  19  64 E15G22    30.08F WCI  19
NANTUCKET      LGT SNOW  32  28  85 E12G22    30.01F VSB 1   WCI  23
$$

ANZ330-335-338-340-345-350-353-355-261800-
COASTAL MARINE OBSERVATIONS


STATION/POSITION TIME  SKY/WX   TEMP    WIND        PRES    VSBY  WAVE
                                AIR SEA DIR/SP/G                  HT/PER
                 (UTC)          (F)     (DEG/KT/KT) (MB)    (MI)  (FT/S)
NY HARB ENTRANCE 1700            29 43   40/ 27/ 33 1010.9          7/ 7
4S FIRE IS       1700               38                N/A           6/ 6
20S FIRE ISLAND  1600               41              1013.0          8/ 6
23SW MTP         1700                                 N/A           8/ 6
HUDSON CANYON    NOT AVBL
EXECUTION ROCKS  1700            23 35   50/ 23/ 29   N/A
WESTERN LI SOUND 1700            22      50/ 19/ 23   N/A           4/ 5
CENTRAL LI SOUND 1600            22 36   40/ 17/ 19   N/A           3/ 4
EASTERN LI SOUND NOT AVBL
ROBBINS REEF     1700            22      50/ 22/ 30 1012.3
$$


>>>>>>>>>>>>>>>>>>>>>>>>>>>> KEY <<<<<<<<<<<<<<<<<<<<<<<<<<<
>                                                          <
>     SKY/WX - SKY CONDITION/PRESENT WEATHER               <
>     TMP    - TEMPERATURE IN FAHRENHEIT                   <
>     DP     - DEWPOINT IN FAHRENHEIT                      <
>     RH     - RELATIVE HUMIDITY IN PERCENT                <
>     WIND   - DIRECTION AND SPEED IN MPH                  <
>     PRES   - MEAN SEA LEVEL PRESSURE IN INCHES OF HG     <
>     WCI    - WIND CHILL INDEX                            <
>     VSB    - VISIBILITY IN MILES                         <
>     HX     - HEAT INDEX                                  <
>     TC     - TEMPERATURE IN CELSIUS                      <
>     VRB    - VARIABLE WIND DIRECTION                     <
>                                                          <
>>>>>>>>>>>>>>>>>>>>>>>>>>>> KEY <<<<<<<<<<<<<<<<<<<<<<<<<<<




USA.gov is the U.S. government's official web portal to all federal, state and local government web resources and services.